Regional Weather Roundup
Issued by NWS

Home | Current Version | Previous Version | Graphics & Text | Print | Product List | Glossary On
Versions: 1 2 3 4 5 6 7 8 9 10 11 12 13 14 15 16 17 18 19 20 21 22 23 24 25 26 27 28 29 30 31 32 33 34 35 36 37 38 39 40 41 42 43 44 45 46 47 48 49 50
000
ASUS43 KMKX 011000
RWRWI

WISCONSIN REGIONAL WEATHER ROUNDUP
NATIONAL WEATHER SERVICE MILWAUKEE/SULLIVAN WI
500 AM CDT SAT OCT 01 2016

NOTE: "FAIR" INDICATES FEW OR NO CLOUDS BELOW 12,000 FEET WITH NO
SIGNIFICANT WEATHER AND/OR OBSTRUCTIONS TO VISIBILITY.

WIZ001-002-006>008-014>016-023>028-011100-
NORTHWEST WISCONSIN

CITY           SKY/WX    TMP DP  RH WIND       PRES   REMARKS
SUPERIOR ARPT  CLOUDY    51  51 100 NE3       30.25S
ASHLAND        FOG       54  54 100 NE10      30.23F VSB 1/4
HAYWARD        CLEAR     48  46  93 NE3       30.21F
SIREN          MOCLDY    50  49  97 N5        30.22S
CUMBERLAND     CLEAR     48  46  93 NE5       30.20S
RICE LAKE      CLEAR     51  49  93 CALM      30.21S
CHETEK         NOT AVBL
LADYSMITH      PTCLDY    52  49  92 N5        30.21S
EAU CLAIRE     NOT AVBL
MENOMONIE      CLEAR     55  52  91 N5        30.18S
NEW RICHMOND   CLEAR     49  49  98 CALM      30.18F
OSCEOLA        CLEAR     52  52 100 CALM      30.21S
$$

WIZ003>005-009-010-017-018-011100-
NORTH CENTRAL WISCONSIN

CITY           SKY/WX    TMP DP  RH WIND       PRES   REMARKS
MANITOWISH WTR NOT AVBL
ARBOR VITAE    CLOUDY    52  50  91 CALM      30.21S
WOODRUFF       CLOUDY    52  50  91 CALM      30.21S
RHINELANDER    PTCLDY    53  51  93 NE3       30.20S
EAGLE RIVER    CLOUDY    51  50  96 CALM      30.20F
LAND O LAKES   CLOUDY    49  49 100 CALM      30.23F
PHILLIPS       CLOUDY    49  49  99 CALM      30.19F
TOMAHAWK       CLOUDY    52  49  89 CALM      30.19S
MEDFORD        CLOUDY    51  51 100 NE3       30.18R
MERRILL        CLOUDY    53  51  95 E5        30.19R
$$

WIZ029-030-035-036-043>047-011100-
CENTRAL WISCONSIN

CITY           SKY/WX    TMP DP  RH WIND       PRES   REMARKS
WAUSAU         MOCLDY    54  52  93 VRB5      30.16S
MOSINEE        PTCLDY    54  54 100 NE7       30.17S
MARSHFIELD     MOCLDY    57  51  80 N8        30.16R
STEVENS POINT  LGT RAIN  55  54  95 NE7       30.16S
WAUPACA        CLOUDY    59  58  96 NE7       30.14S
WAUTOMA        CLOUDY    58  57  97 NE8       30.13S
WISC RAPIDS    CLOUDY    59  55  87 NE6       30.15S
CAMP DOUGLAS   DRIZZLE   57  55  94 N5        30.12S
$$

WIZ011>013-019>022-031-037>040-048>050-011100-
NORTHEAST WISCONSIN

CITY           SKY/WX    TMP DP  RH WIND       PRES   REMARKS
ANTIGO         CLOUDY    53  52  97 CALM      30.18S
SHAWANO        CLOUDY    60  56  89 NE5       30.16S
OCONTO         NOT AVBL
STURGEON BAY   CLOUDY    61  55  81 NE6       30.15S
GREEN BAY      CLOUDY    60  59  96 NE8       30.13F
MANITOWOC      NOT AVBL
APPLETON       CLOUDY    57  57 100 NE6       30.12S
CLINTONVILLE   CLOUDY    57  54  88 NE5       30.14F
OSHKOSH        CLOUDY    59  57  93 E9        30.11S
$$

WIZ032>034-041-042-053>061-011100-
SOUTHWEST WISCONSIN

CITY           SKY/WX    TMP DP  RH WIND       PRES   REMARKS
LA CROSSE      CLOUDY    62  55  77 NE7       30.12S
SPARTA         CLOUDY    58  55  90 NE6       30.14S
VIROQUA        CLOUDY    56  56 100 NE8       30.12R
BOSCOBEL       CLOUDY    60  58  92 CALM      30.10S
PRAIRIE DU CHI CLOUDY    60  56  87 N6        30.09S
PLATTEVILLE    CLOUDY    58  58 100 N5        30.08S
$$

WIZ056-057-062-063-064-067-068-011100-
SOUTH CENTRAL WISCONSIN

CITY           SKY/WX    TMP DP  RH WIND       PRES   REMARKS
REEDSBURG      NOT AVBL
BARABOO/DELLS  DRIZZLE   58  57  96 NE7       30.10S
LONE ROCK      LGT RAIN  60  58  92 NE7       30.09S
MINERAL POINT  CLOUDY    59  59 100 N5        30.08S
MADISON        CLOUDY    59  58  96 NE8       30.07F FOG
MIDDLETON      CLOUDY    60  60 100 NE7       30.08S
WATERTOWN      RAIN      59  59 100 NE6       30.07F
MONROE         CLOUDY    59  57  94 NE7       30.06S
JANESVILLE     DRIZZLE   61  59  94 NE6       30.05S
$$

WIZ051-052-058>065-066-070>072-011100-
SOUTHEAST WISCONSIN

CITY           SKY/WX    TMP DP  RH WIND       PRES   REMARKS
MILWAUKEE      CLOUDY    61  58  90 NE6       30.06F
WAUKESHA       CLOUDY    57  55  94 CALM      30.08F
MILWAUKEE/TIMM CLOUDY    59  55  88 CALM      30.07F
RACINE         MOCLDY    60  58  92 NE7       30.07S
BURLINGTON     MOCLDY    56  56  99 CALM      30.05F
KENOSHA        CLOUDY    59  57  93 CALM      30.05F
FOND DU LAC    CLOUDY    59  57  93 NE7       30.10F
SHEBOYGAN      CLOUDY    59  57  93 NE8       30.10F
WEST BEND      CLOUDY    68  68 100 NE6       30.08F
JUNEAU         DRIZZLE   58  57  97 N7        30.10S
$$

LSZ147-162-011100-
LAKE SUPERIOR

STATION/POSITION TIME  TEMP    WIND        PRES    WAVE
                       AIR SEA DIR/SP/G            HT/PER
                 (UTC) (F)     (DEG/KT/KT) (MB)    (FT/S)
W MID LAKE BUOY  0850   56 55   30/ 10/ 10 1023.8F   1/ 4
DEVILS ISLAND    0900   54      60/  8/ 10 1024.3F
SAXON HARBOR     0900   53     210/  2/  3 1023.4F
$$

LMZ867-665-643>646-011100-
LAKE MICHIGAN

STATION/POSITION TIME  TEMP    WIND        PRES    WAVE
                       AIR SEA DIR/SP/G            HT/PER
                 (UTC) (F)     (DEG/KT/KT) (MB)    (FT/S)
CHAMBERS ISLAND  0900   62      30/ 11/ 15 1021.0S
S GREEN BAY BUOY 0900   62 62   60/ 14/ 17 1020.3F
N MID LAKE BUOY  0850   63 64   80/ 16/ 17 1020.7F   4/ 5
NORTHPORT PIER   0900   63      80/ 12/ 16 1021.3S
SISTER BAY       0908   62     120/  8/ 10   N/A
KEWAUNEE LAKESHO 0900   61      80/ 10/ 15 1019.8F
SHEBOYGAN LAKESH 0900   60      70/ 12/ 13 1019.1F
PORT WASHINGTON  0900   61      50/  9/ 12 1019.6S
ATWATER BUOY     0900   57 56   70/  2/  6 1018.3R
MILWAUKEE LAKESH 0910   57     100/  6/  6   N/A
S MID LAKE BUOY  0850   62 67  100/  6/  8 1016.7F   4/ 6
KENOSHA   LAKESH 0900   63      90/  6/  6 1017.3F
$$

TC  - TEMPERATURE IN CELSIUS
VSB - VISIBILITY IN STATUTE MILES
WCI - WIND CHILL INDEX
HX  - HEAT INDEX





USA.gov is the U.S. government's official web portal to all federal, state and local government web resources and services.